ENY3356 MYAM-KMIA

Flight info

Callsign ENY3356
Flight time 0h 44m
Altitude 30000
Route REPEE BNFSH2
Aircraft E75L/M-SDE3GILORVW/S

Departure

Time 2026-05-07 00:30
Airport Leonard M. Thompson International Airport (MYAM)

Arrival

Time 2026-05-07 01:14
Airport Miami International Airport (KMIA)
Time Latitude Longitude Altitude Speed Heading
2026-05-07 00:08 26.51283 -77.07783 17 ft 0 kts 14°
2026-05-07 00:24 26.51289 -77.07779 17 ft 1 kts 43°
2026-05-07 00:24 26.51286 -77.07759 17 ft 3 kts 147°
2026-05-07 00:25 26.51251 -77.07768 17 ft 6 kts 218°
2026-05-07 00:25 26.51216 -77.07818 17 ft 9 kts 237°
2026-05-07 00:25 26.51175 -77.07890 17 ft 12 kts 238°
2026-05-07 00:25 26.51151 -77.07952 17 ft 14 kts 265°
2026-05-07 00:26 26.51148 -77.08118 17 ft 17 kts 267°
2026-05-07 00:26 26.51143 -77.08264 16 ft 20 kts 268°
2026-05-07 00:26 26.51140 -77.08433 15 ft 23 kts 269°
2026-05-07 00:26 26.51136 -77.08609 15 ft 20 kts 270°
2026-05-07 00:27 26.51133 -77.08778 14 ft 23 kts 267°
2026-05-07 00:27 26.51129 -77.08896 13 ft 22 kts 268°
2026-05-07 00:27 26.51122 -77.09131 13 ft 22 kts 268°
2026-05-07 00:27 26.51119 -77.09293 12 ft 19 kts 268°
2026-05-07 00:28 26.51113 -77.09441 13 ft 16 kts 262°
2026-05-07 00:28 26.51024 -77.09473 13 ft 12 kts 176°
2026-05-07 00:28 26.50989 -77.09433 12 ft 6 kts 86°
2026-05-07 00:28 26.50990 -77.09429 12 ft 0 kts 86°
2026-05-07 00:30 26.51021 -77.08209 17 ft 128 kts 88°
2026-05-07 00:30 26.51046 -77.07162 339 ft 136 kts 88°
2026-05-07 00:30 26.51071 -77.06139 877 ft 132 kts 85°
2026-05-07 00:30 26.51116 -77.05064 1226 ft 144 kts 88°
2026-05-07 00:31 26.51137 -77.03907 1585 ft 157 kts 89°
2026-05-07 00:31 26.50874 -77.02697 1935 ft 171 kts 126°
2026-05-07 00:31 26.49850 -77.01997 2303 ft 186 kts 169°
2026-05-07 00:31 26.48484 -77.01917 2620 ft 204 kts 177°
2026-05-07 00:32 26.47003 -77.01872 2888 ft 220 kts 177°
2026-05-07 00:32 26.45387 -77.01822 3250 ft 244 kts 177°
2026-05-07 00:32 26.43612 -77.01766 3612 ft 266 kts 178°
2026-05-07 00:32 26.41689 -77.01707 3962 ft 288 kts 178°
2026-05-07 00:33 26.39590 -77.01640 4308 ft 308 kts 178°
2026-05-07 00:33 26.37383 -77.01570 4642 ft 327 kts 178°
2026-05-07 00:33 26.35057 -77.01496 4969 ft 341 kts 178°
2026-05-07 00:33 26.32651 -77.01432 5489 ft 347 kts 181°
2026-05-07 00:34 26.31071 -77.01716 5888 ft 348 kts 199°
2026-05-07 00:34 26.28507 -77.03819 6741 ft 351 kts 236°
2026-05-07 00:34 26.27595 -77.06295 7377 ft 352 kts 263°
2026-05-07 00:34 26.27748 -77.08982 8023 ft 353 kts 284°
2026-05-07 00:35 26.28225 -77.11671 8651 ft 358 kts 282°
2026-05-07 00:35 26.28653 -77.14426 9266 ft 363 kts 281°
2026-05-07 00:35 26.29061 -77.17208 9878 ft 368 kts 281°
2026-05-07 00:35 26.29467 -77.20033 10491 ft 373 kts 282°
2026-05-07 00:36 26.29878 -77.22923 11110 ft 378 kts 282°
2026-05-07 00:36 26.30286 -77.25804 11720 ft 382 kts 282°
2026-05-07 00:36 26.30702 -77.28745 12334 ft 386 kts 282°
2026-05-07 00:36 26.31115 -77.31671 12938 ft 389 kts 282°
2026-05-07 00:37 26.31539 -77.34682 13554 ft 391 kts 283°
2026-05-07 00:37 26.31957 -77.37648 14161 ft 392 kts 283°
2026-05-07 00:37 26.32375 -77.40620 14763 ft 393 kts 283°
2026-05-07 00:37 26.32800 -77.43654 15375 ft 394 kts 283°
2026-05-07 00:38 26.33218 -77.46635 15977 ft 395 kts 283°
2026-05-07 00:38 26.33644 -77.49684 16580 ft 396 kts 283°
2026-05-07 00:38 26.34067 -77.52715 17186 ft 397 kts 283°
2026-05-07 00:38 26.34488 -77.55736 17791 ft 397 kts 283°
2026-05-07 00:39 26.34906 -77.58736 18390 ft 397 kts 283°
2026-05-07 00:39 26.35327 -77.61769 18994 ft 396 kts 283°
2026-05-07 00:39 26.35744 -77.64774 19595 ft 395 kts 283°
2026-05-07 00:39 26.36025 -77.66799 20002 ft 394 kts 283°
2026-05-07 00:40 26.36575 -77.70776 20810 ft 391 kts 283°
2026-05-07 00:40 26.36990 -77.73787 21423 ft 389 kts 283°
2026-05-07 00:40 26.37396 -77.76726 22025 ft 387 kts 283°
2026-05-07 00:40 26.37668 -77.78706 22434 ft 385 kts 283°
2026-05-07 00:41 26.38202 -77.82592 23266 ft 381 kts 283°
2026-05-07 00:41 26.38599 -77.85480 23894 ft 377 kts 283°
2026-05-07 00:41 26.38993 -77.88352 24533 ft 374 kts 283°
2026-05-07 00:41 26.39381 -77.91190 25167 ft 370 kts 283°
2026-05-07 00:42 26.39760 -77.93969 25790 ft 366 kts 283°
2026-05-07 00:42 26.40146 -77.96789 25960 ft 375 kts 283°
2026-05-07 00:42 26.40545 -77.99717 25993 ft 386 kts 282°
2026-05-07 00:42 26.40954 -78.02722 25996 ft 397 kts 282°
2026-05-07 00:43 26.41370 -78.05785 25997 ft 407 kts 282°
2026-05-07 00:43 26.41794 -78.08916 25998 ft 416 kts 282°
2026-05-07 00:43 26.42229 -78.12131 25998 ft 425 kts 282°
2026-05-07 00:43 26.42674 -78.15427 26000 ft 433 kts 282°
2026-05-07 00:44 26.43125 -78.18774 25998 ft 437 kts 282°
2026-05-07 00:44 26.43570 -78.22081 25997 ft 436 kts 282°
2026-05-07 00:44 26.44020 -78.25435 25996 ft 436 kts 282°
2026-05-07 00:44 26.44469 -78.28780 25996 ft 436 kts 282°
2026-05-07 00:45 26.44911 -78.32084 25996 ft 435 kts 282°
2026-05-07 00:45 26.45361 -78.35455 25995 ft 434 kts 282°
2026-05-07 00:45 26.45805 -78.38779 25995 ft 434 kts 282°
2026-05-07 00:45 26.46248 -78.42110 25997 ft 435 kts 282°
2026-05-07 00:46 26.46690 -78.45434 25997 ft 435 kts 282°
2026-05-07 00:46 26.47133 -78.48769 25996 ft 435 kts 282°
2026-05-07 00:46 26.47573 -78.52098 25998 ft 434 kts 282°
2026-05-07 00:46 26.48013 -78.55422 25997 ft 433 kts 282°
2026-05-07 00:47 26.48454 -78.58763 25997 ft 434 kts 282°
2026-05-07 00:47 26.48887 -78.62057 25998 ft 434 kts 282°
2026-05-07 00:47 26.49325 -78.65385 25999 ft 435 kts 281°
2026-05-07 00:47 26.49768 -78.68760 26004 ft 434 kts 281°
2026-05-07 00:48 26.50203 -78.72084 26004 ft 434 kts 281°
2026-05-07 00:48 26.50637 -78.75407 26003 ft 434 kts 281°
2026-05-07 00:48 26.51072 -78.78742 26004 ft 434 kts 281°
2026-05-07 00:48 26.51502 -78.82038 26003 ft 434 kts 281°
2026-05-07 00:49 26.51932 -78.85352 26001 ft 433 kts 281°
2026-05-07 00:49 26.52368 -78.88708 26003 ft 434 kts 281°
2026-05-07 00:49 26.52795 -78.92010 26001 ft 433 kts 281°
2026-05-07 00:49 26.53222 -78.95309 25999 ft 434 kts 281°
2026-05-07 00:50 26.53650 -78.98633 25998 ft 433 kts 281°
2026-05-07 00:50 26.53986 -79.01968 25987 ft 436 kts 275°
2026-05-07 00:50 26.54007 -79.05347 25998 ft 437 kts 274°
2026-05-07 00:50 26.54011 -79.08753 25994 ft 437 kts 274°
2026-05-07 00:51 26.54014 -79.12135 25994 ft 438 kts 274°
2026-05-07 00:51 26.54015 -79.15491 25994 ft 436 kts 274°
2026-05-07 00:51 26.54017 -79.18892 25994 ft 437 kts 274°
2026-05-07 00:51 26.54017 -79.22250 25993 ft 436 kts 274°
2026-05-07 00:52 26.54016 -79.25623 25973 ft 436 kts 274°
2026-05-07 00:52 26.54015 -79.29026 25425 ft 435 kts 274°
2026-05-07 00:52 26.54013 -79.32352 24900 ft 431 kts 274°
2026-05-07 00:52 26.54010 -79.35695 24370 ft 428 kts 274°
2026-05-07 00:53 26.54006 -79.38990 23849 ft 424 kts 274°
2026-05-07 00:53 26.54003 -79.41170 23492 ft 414 kts 274°
2026-05-07 00:53 26.53996 -79.45335 22625 ft 396 kts 274°
2026-05-07 00:53 26.53991 -79.48356 21977 ft 385 kts 274°
2026-05-07 00:54 26.53985 -79.51286 21338 ft 375 kts 274°
2026-05-07 00:54 26.53915 -79.54134 20690 ft 370 kts 265°
2026-05-07 00:54 26.53057 -79.56856 20072 ft 370 kts 248°
2026-05-07 00:54 26.51907 -79.59372 19454 ft 364 kts 247°
2026-05-07 00:55 26.50752 -79.61860 18823 ft 359 kts 246°
2026-05-07 00:55 26.49607 -79.64311 18195 ft 354 kts 246°
2026-05-07 00:55 26.48481 -79.66717 17577 ft 350 kts 246°
2026-05-07 00:55 26.47368 -79.69089 16967 ft 347 kts 245°
2026-05-07 00:56 26.46257 -79.71455 16353 ft 344 kts 245°
2026-05-07 00:56 26.44825 -79.73584 16036 ft 334 kts 231°
2026-05-07 00:56 26.43306 -79.75454 15979 ft 314 kts 231°
2026-05-07 00:56 26.41864 -79.77218 15593 ft 314 kts 230°
2026-05-07 00:57 26.40380 -79.79028 14978 ft 317 kts 230°
2026-05-07 00:57 26.38882 -79.80852 14404 ft 318 kts 230°
2026-05-07 00:57 26.37571 -79.82783 13814 ft 318 kts 238°
2026-05-07 00:57 26.36715 -79.84154 13404 ft 319 kts 237°
2026-05-07 00:58 26.35026 -79.86857 12619 ft 321 kts 237°
2026-05-07 00:58 26.33752 -79.88895 12032 ft 321 kts 237°
2026-05-07 00:58 26.32477 -79.90932 11441 ft 321 kts 237°
2026-05-07 00:58 26.31209 -79.92957 11051 ft 313 kts 237°
2026-05-07 00:59 26.28844 -79.96731 10997 ft 291 kts 237°
2026-05-07 00:59 26.27680 -79.98588 11006 ft 293 kts 237°
2026-05-07 00:59 26.26504 -80.00462 11005 ft 295 kts 236°
2026-05-07 01:00 26.25011 -80.02002 11013 ft 296 kts 205°
2026-05-07 01:00 26.23040 -80.02676 11032 ft 296 kts 191°
2026-05-07 01:00 26.21044 -80.03155 11009 ft 295 kts 190°
2026-05-07 01:00 26.18995 -80.03635 11004 ft 296 kts 190°
2026-05-07 01:01 26.16988 -80.04098 11003 ft 295 kts 190°
2026-05-07 01:01 26.14970 -80.04561 11002 ft 296 kts 190°
2026-05-07 01:01 26.12942 -80.05025 11002 ft 296 kts 190°
2026-05-07 01:01 26.10923 -80.05486 11003 ft 295 kts 190°
2026-05-07 01:02 26.08900 -80.05949 11002 ft 296 kts 190°
2026-05-07 01:02 26.06898 -80.06409 11003 ft 295 kts 191°
2026-05-07 01:02 26.04891 -80.06929 11003 ft 295 kts 192°
2026-05-07 01:02 26.03553 -80.07276 10922 ft 298 kts 192°
2026-05-07 01:03 26.00828 -80.07984 10176 ft 302 kts 192°
2026-05-07 01:03 25.98763 -80.08521 9636 ft 302 kts 191°
2026-05-07 01:03 25.97413 -80.08871 9285 ft 302 kts 191°
2026-05-07 01:03 25.94653 -80.09588 8567 ft 302 kts 192°
2026-05-07 01:04 25.92657 -80.10246 8020 ft 302 kts 208°
2026-05-07 01:04 25.91063 -80.11730 7520 ft 298 kts 228°
2026-05-07 01:04 25.89664 -80.13427 6988 ft 297 kts 228°
2026-05-07 01:04 25.88293 -80.15109 6445 ft 295 kts 231°
2026-05-07 01:05 25.87439 -80.17106 6060 ft 282 kts 266°
2026-05-07 01:05 25.87547 -80.19179 6015 ft 260 kts 277°
2026-05-07 01:05 25.87641 -80.21134 5994 ft 255 kts 273°
2026-05-07 01:05 25.87656 -80.23122 5999 ft 259 kts 272°
2026-05-07 01:06 25.87631 -80.25142 5998 ft 261 kts 271°
2026-05-07 01:06 25.87586 -80.27142 5996 ft 262 kts 270°
2026-05-07 01:06 25.87715 -80.29128 5990 ft 258 kts 292°
2026-05-07 01:06 25.88497 -80.30920 6013 ft 256 kts 300°
2026-05-07 01:07 25.89334 -80.32661 5960 ft 258 kts 300°
2026-05-07 01:07 25.90201 -80.34452 5370 ft 266 kts 300°
2026-05-07 01:07 25.91087 -80.36276 4814 ft 269 kts 300°
2026-05-07 01:07 25.91975 -80.38103 4264 ft 271 kts 300°
2026-05-07 01:08 25.92858 -80.39920 3718 ft 272 kts 300°
2026-05-07 01:08 25.93639 -80.41837 3160 ft 274 kts 280°
2026-05-07 01:08 25.93415 -80.43833 3045 ft 255 kts 243°
2026-05-07 01:08 25.92249 -80.45151 3054 ft 227 kts 204°
2026-05-07 01:09 25.90791 -80.45403 3009 ft 204 kts 175°
2026-05-07 01:09 25.89457 -80.45212 2972 ft 185 kts 168°
2026-05-07 01:09 25.88266 -80.44930 3043 ft 159 kts 164°
2026-05-07 01:09 25.87378 -80.44350 2948 ft 145 kts 126°
2026-05-07 01:10 25.86799 -80.43436 3043 ft 145 kts 122°
2026-05-07 01:10 25.86260 -80.42487 3191 ft 149 kts 120°
2026-05-07 01:10 25.85716 -80.41514 3208 ft 145 kts 120°
2026-05-07 01:10 25.85228 -80.40574 3002 ft 138 kts 117°
2026-05-07 01:11 25.84774 -80.39641 2695 ft 136 kts 117°
2026-05-07 01:11 25.84302 -80.38751 2417 ft 131 kts 120°
2026-05-07 01:11 25.83862 -80.37884 2172 ft 130 kts 118°
2026-05-07 01:11 25.83404 -80.37013 1837 ft 128 kts 120°
2026-05-07 01:12 25.82966 -80.36186 1527 ft 122 kts 119°
2026-05-07 01:12 25.82563 -80.35374 1230 ft 118 kts 117°
2026-05-07 01:12 25.82150 -80.34593 956 ft 121 kts 120°
2026-05-07 01:12 25.81731 -80.33784 769 ft 119 kts 117°
2026-05-07 01:13 25.81331 -80.32983 587 ft 117 kts 117°
2026-05-07 01:13 25.80930 -80.32206 420 ft 116 kts 118°
2026-05-07 01:13 25.80532 -80.31425 283 ft 114 kts 117°
2026-05-07 01:13 25.80149 -80.30660 138 ft 113 kts 117°
2026-05-07 01:14 25.79764 -80.29905 22 ft 113 kts 117°
2026-05-07 01:14 25.79404 -80.29198 12 ft 91 kts 119°
2026-05-07 01:14 25.79199 -80.28746 12 ft 35 kts 102°
2026-05-07 01:14 25.79239 -80.28624 12 ft 13 kts 46°
2026-05-07 01:15 25.79321 -80.28571 12 ft 14 kts 19°
2026-05-07 01:15 25.79423 -80.28569 12 ft 14 kts 359°
2026-05-07 01:15 25.79500 -80.28571 12 ft 10 kts 358°
2026-05-07 01:15 25.79574 -80.28575 12 ft 11 kts 358°
2026-05-07 01:16 25.79643 -80.28603 12 ft 11 kts 299°
2026-05-07 01:16 25.79647 -80.28662 12 ft 12 kts 265°
2026-05-07 01:16 25.79653 -80.28791 12 ft 13 kts 311°
2026-05-07 01:16 25.79742 -80.28801 12 ft 13 kts 33°
2026-05-07 01:17 25.79757 -80.28712 12 ft 9 kts 85°
2026-05-07 01:17 25.79755 -80.28642 12 ft 9 kts 119°
2026-05-07 01:17 25.79735 -80.28619 12 ft 0 kts 140°
2026-05-07 01:17 25.79731 -80.28615 12 ft 0 kts 141°